[[{"header":{"parameterUnit":"m.s-1","parameterCategory":1,"la1":30.2991,"la2":30.254,"lo1":-89.0895,"lo2":-89.0444,"dy":0.0017,"dx":0.0017,"nx":28,"ny":28,"refTime":"2025-06-23T03:00:00:Z","depth":0,"parameterNumber":2,"parameterNumberName":"U-component_of_WINDS"},"data":[0,0,0,0,0,0,0,0,0,0,0,0,0,0,0,0,0,0,0,0,0,0,0,0,0,0,0,0,0,0,0,0,0,0,0,0,0,0,0,0,0,0,0,0,0,0,0,0,0,0,0,0,0,0,0,0,0,0,-0.8086,-0.8086,0,-0.8099,-0.8099,-0.81,-0.8053,-0.8051,-0.805,-0.8049,-0.8067,-0.8069,-0.8071,0,0,0,0,0,0,0,0,0,0,0,0,0,-0.8025,-0.8027,-0.8086,-0.8086,-0.8086,-0.8099,-0.8099,-0.81,-0.8053,-0.8051,-0.805,-0.8048,-0.8066,-0.8069,-0.8071,0,0,0,0,0,0,0,0,0,0,0,0,0,-0.8047,-0.8027,-0.8086,-0.8065,-0.8063,-0.8099,-0.8099,-0.81,-0.8053,-0.8051,-0.8049,-0.8047,-0.8066,-0.8068,-0.8071,-0.813,0,0,-0.8079,-0.8081,0,0,0,0,0,0,0,0,-0.8045,-0.8049,-0.8068,-0.8066,-0.8064,-0.8072,-0.8085,-0.811,-0.8054,-0.8057,-0.8048,-0.8046,-0.8071,-0.8073,-0.808,-0.8131,-0.8132,-0.808,-0.8081,-0.8082,-0.8083,0,0,0,0,0,0,0,-0.8044,-0.8048,-0.8091,-0.8068,-0.8066,-0.8056,-0.8056,-0.8089,-0.8076,-0.8057,-0.8053,-0.8055,-0.8069,-0.8078,-0.808,-0.8132,-0.808,-0.8082,-0.8084,-0.8085,-0.8232,-0.8234,0,0,0,0,0,0,-0.8045,-0.8047,-0.8091,-0.8092,-0.8049,-0.8059,-0.8059,-0.8072,-0.8075,-0.8074,-0.8057,-0.8053,-0.8074,-0.8077,-0.8081,-0.815,-0.8082,-0.8085,-0.8087,-0.823,-0.8233,-0.8235,0,0,0,0,0,0,-0.8044,-0.8049,-0.809,-0.8069,-0.8073,-0.8062,-0.8076,-0.8073,-0.8081,-0.8075,-0.8073,-0.8067,-0.8073,-0.8077,-0.8118,-0.815,-0.8086,-0.8089,-0.8227,-0.8231,-0.8234,-0.8289,0,0,0,0,0,0,-0.8042,-0.8049,-0.807,-0.8069,-0.8074,-0.8126,-0.8078,-0.8075,-0.8085,-0.808,-0.8085,-0.8084,-0.8071,-0.8114,-0.8121,-0.8152,-0.8091,-0.8224,-0.8229,-0.8233,-0.8284,-0.8293,-0.8302,0,0,0,0,0,-0.804,-0.8086,-0.8072,-0.8077,-0.81,-0.8128,-0.8131,-0.8114,-0.8088,-0.811,-0.8106,-0.8083,-0.8145,-0.8119,-0.8126,-0.8159,-0.8222,-0.8228,-0.8233,-0.828,-0.8292,-0.8301,0,0,0,0,0,0,-0.8093,-0.8086,-0.8069,-0.8116,-0.8123,-0.812,-0.8147,-0.8127,-0.8143,-0.8138,-0.8118,-0.8119,-0.8164,-0.8166,-0.8136,-0.8216,-0.8179,-0.8186,-0.8213,-0.8224,-0.8233,-0.8231,-0.8093,0,0,0,0,0,-0.811,-0.8132,-0.8125,-0.8167,-0.8171,-0.8159,-0.817,-0.8156,-0.8163,-0.8166,-0.8165,-0.8174,-0.8195,-0.821,-0.8229,-0.8284,-0.8284,-0.831,-0.8319,-0.8326,-0.8333,-0.8361,-0.8372,-0.8252,-0.8252,-0.8252,0,0,-0.8146,-0.8145,-0.816,-0.8178,-0.8181,-0.8205,-0.8161,-0.8189,-0.8206,-0.8171,-0.8209,-0.8209,-0.8217,-0.8265,-0.8286,-0.8268,-0.8366,-0.8333,-0.8339,-0.8341,-0.8368,-0.8379,-0.8389,-0.8256,-0.8255,-0.8254,0,0,-0.8223,-0.8224,-0.8259,-0.8263,-0.8268,-0.8259,-0.8268,-0.8268,-0.8266,-0.8303,-0.8277,-0.8299,-0.8336,-0.8343,-0.8351,-0.843,-0.841,-0.8437,-0.8484,-0.8512,-0.8521,-0.853,-0.8557,-0.8568,-0.8444,-0.8444,-0.8444,0,-0.8267,-0.83,-0.828,-0.8308,-0.8317,-0.8284,-0.832,-0.8326,-0.8338,-0.8345,-0.8324,-0.8369,-0.8373,-0.8422,-0.8441,-0.8449,-0.8459,-0.8436,-0.8521,-0.8529,-0.8537,-0.8563,-0.8574,-0.8447,-0.8447,-0.8446,-0.8446,0,-0.8354,-0.8378,-0.8406,-0.8415,-0.8428,-0.846,-0.8446,-0.8461,-0.8446,-0.844,-0.8479,-0.8482,-0.8501,-0.8512,-0.8499,-0.8559,-0.8547,-0.8524,-0.8487,-0.8552,-0.8576,-0.8586,-0.8452,-0.845,-0.8449,-0.8449,0,0,-0.8465,-0.8462,-0.8473,-0.8477,-0.848,-0.8498,-0.853,-0.8546,-0.856,-0.857,-0.8595,-0.8627,-0.8605,-0.8615,-0.8603,-0.8628,-0.869,-0.8601,-0.8601,-0.8617,-0.8755,-0.8772,-0.8784,-0.8676,-0.8678,-0.8679,-0.8754,0,-0.854,-0.859,-0.8573,-0.8625,-0.8647,-0.8616,-0.8643,-0.8649,-0.8645,-0.8663,-0.8659,-0.8682,-0.8652,-0.8657,-0.868,-0.8677,-0.8717,-0.8672,-0.8701,-0.8702,-0.8699,-0.8797,-0.8815,-0.8885,-0.8764,-0.8765,-0.8767,0,-0.8634,-0.8645,-0.8699,-0.8697,-0.8706,-0.873,-0.8744,-0.8762,-0.8768,-0.8763,-0.8774,-0.8756,-0.8788,-0.8751,-0.8794,-0.8764,-0.8775,-0.8775,-0.8778,-0.8779,-0.8738,-0.8801,-0.8908,-0.8918,-0.8782,-0.878,-0.8779,0,-0.8708,-0.8737,-0.8772,-0.8777,-0.8777,-0.8794,-0.8796,-0.8799,-0.881,-0.8823,-0.883,-0.8847,-0.8857,-0.8871,-0.8859,-0.8833,-0.8905,-0.8867,-0.8902,-0.8902,-0.8918,-0.8917,-0.9027,-0.8926,-0.8926,-0.8926,-0.8926,0,-0.8793,-0.8827,-0.8806,-0.8828,-0.8865,-0.8846,-0.8884,-0.8882,-0.8885,-0.8907,-0.8883,-0.8904,-0.8887,-0.8908,-0.8899,-0.8936,-0.8941,-0.8938,-0.8935,-0.894,-0.894,-0.8947,-0.8941,-0.8929,-0.8928,-0.8927,-0.8927,0,-0.8883,-0.8869,-0.8906,-0.8902,-0.8902,-0.893,-0.8927,-0.8948,-0.8941,-0.897,-0.8975,-0.8966,-0.8988,-0.8977,-0.9002,-0.8996,-0.9044,-0.9035,-0.9041,-0.9038,-0.9074,-0.9071,-0.9192,-0.9207,-0.9097,-0.9098,-0.9099,0,-0.8937,-0.8962,-0.8961,-0.8972,-0.8974,-0.8994,-0.9005,-0.8987,-0.8999,-0.9008,-0.9028,-0.9048,-0.9063,-0.9101,-0.9097,-0.9116,-0.9107,-0.9148,-0.911,-0.9113,-0.9107,-0.9105,-0.9108,-0.9156,-0.9157,-0.9158,-0.9159,0,-0.9036,-0.9028,-0.9043,-0.9056,-0.9068,-0.9078,-0.9087,-0.9098,-0.9081,-0.9096,-0.9118,-0.9129,-0.9153,-0.9174,-0.919,-0.9192,-0.9173,-0.9171,-0.918,-0.9185,-0.9187,-0.9186,-0.9061,-0.9168,-0.9167,-0.9167,-0.9166,-0.9166,-0.9109,-0.913,-0.9131,-0.9149,-0.9152,-0.916,-0.9179,-0.9175,-0.9192,-0.9208,-0.9197,-0.9223,-0.9229,-0.9248,-0.9253,-0.9274,-0.9258,-0.9271,-0.9274,-0.9278,-0.9282,-0.9184,-0.9277,-0.9277,-0.9277,-0.9276,-0.9276,0,-0.9206,-0.9205,-0.9221,-0.9232,-0.9246,-0.9225,-0.9233,-0.9247,-0.9269,-0.9275,-0.929,-0.9315,-0.9335,-0.9332,-0.935,-0.9367,-0.9359,-0.9373,-0.9371,-0.9372,-0.9296,-0.9286,-0.9379,-0.9379,-0.9379,-0.9379,-0.9379,-0.9379,-0.9257,-0.9291,-0.9283,-0.9319,-0.9318,-0.9341,-0.9347,-0.9355,-0.9359,-0.9388,-0.9403,-0.9401,-0.9404,-0.9422,-0.9439,-0.9438,-0.9446,-0.9463,-0.9459,-0.9388,-0.9377,-0.9368,-0.9358,-0.9465,-0.9465,-0.9533,-0.9534,-0.9534]},{"header":{"parameterUnit":"m.s-1","parameterCategory":1,"la1":30.2991,"la2":30.254,"lo1":-89.0895,"lo2":-89.0444,"dy":0.0017,"dx":0.0017,"nx":28,"ny":28,"refTime":"2025-06-23T03:00:00:Z","depth":0,"parameterNumber":3,"parameterNumberName":"V-component_of_WINDS"},"data":[0,0,0,0,0,0,0,0,0,0,0,0,0,0,0,0,0,0,0,0,0,0,0,0,0,0,0,0,0,0,0,0,0,0,0,0,0,0,0,0,0,0,0,0,0,0,0,0,0,0,0,0,0,0,0,0,0,0,0.0709,0.0711,0,0.0925,0.0928,0.093,0.0992,0.0991,0.099,0.0989,0.1218,0.1225,0.1233,0,0,0,0,0,0,0,0,0,0,0,0,0,0.0354,0.036,0.0708,0.0711,0.0714,0.0925,0.0928,0.0931,0.0993,0.0991,0.099,0.0988,0.1216,0.1225,0.1233,0,0,0,0,0,0,0,0,0,0,0,0,0,0.0533,0.0362,0.0708,0.077,0.0777,0.0924,0.0928,0.0932,0.0993,0.0991,0.0989,0.0988,0.1213,0.1224,0.1234,0.1338,0,0,0.1268,0.1272,0,0,0,0,0,0,0,0,0.0523,0.0546,0.0758,0.0766,0.0775,0.093,0.0887,0.1068,0.0993,0.0911,0.0989,0.0987,0.1124,0.1142,0.1187,0.1348,0.1358,0.1269,0.1275,0.128,0.1283,0,0,0,0,0,0,0,0.051,0.0537,0.0794,0.0761,0.0771,0.0789,0.0812,0.0922,0.1026,0.0918,0.0923,0.0948,0.1129,0.1177,0.1193,0.1362,0.1268,0.1278,0.1285,0.1289,0.1619,0.1621,0,0,0,0,0,0,0.0486,0.0526,0.0788,0.0801,0.0641,0.0797,0.0823,0.0882,0.1025,0.1044,0.0949,0.095,0.1159,0.118,0.1201,0.1332,0.128,0.129,0.1296,0.1617,0.162,0.1622,0,0,0,0,0,0,0.0479,0.0509,0.0779,0.0665,0.0701,0.0805,0.0871,0.0887,0.0935,0.1048,0.1067,0.0979,0.1158,0.1186,0.1303,0.1341,0.1295,0.1305,0.1614,0.1618,0.1621,0.1594,0,0,0,0,0,0,0.0468,0.0506,0.0545,0.0665,0.0706,0.0875,0.0873,0.0893,0.0953,0.0956,0.1081,0.11,0.1159,0.1286,0.1314,0.1355,0.1313,0.1611,0.1616,0.162,0.1592,0.1596,0.1599,0,0,0,0,0,0.0455,0.053,0.0546,0.0578,0.0757,0.0877,0.09,0.0965,0.0956,0.0997,0.1069,0.1096,0.1332,0.1298,0.1329,0.1374,0.1609,0.1615,0.162,0.159,0.1595,0.1599,0,0,0,0,0,0,0.0414,0.0547,0.0567,0.0682,0.0767,0.0887,0.094,0.0968,0.106,0.1059,0.1138,0.1166,0.1277,0.1338,0.1297,0.1482,0.1472,0.1483,0.1439,0.1444,0.1448,0.1432,0.1322,0,0,0,0,0,0.0418,0.0502,0.0614,0.0706,0.0747,0.0836,0.0891,0.0933,0.1025,0.1063,0.1143,0.1234,0.1329,0.139,0.1483,0.16,0.163,0.1647,0.1651,0.1653,0.1663,0.173,0.174,0.1639,0.1639,0.1639,0,0,0.0428,0.0511,0.0559,0.0699,0.077,0.0857,0.0866,0.0958,0.1024,0.1078,0.1192,0.1254,0.1361,0.1478,0.1534,0.1532,0.1697,0.166,0.1661,0.167,0.1737,0.1746,0.1754,0.1642,0.1642,0.1641,0,0,0.049,0.0561,0.0644,0.0715,0.0821,0.0879,0.0899,0.1015,0.1057,0.1173,0.1214,0.1295,0.1457,0.1531,0.159,0.1679,0.1708,0.1707,0.1728,0.1792,0.18,0.1808,0.1841,0.1851,0.1716,0.1716,0.1716,0,0.049,0.0621,0.0685,0.0774,0.0835,0.0884,0.0971,0.1037,0.1169,0.1211,0.1206,0.1409,0.1484,0.162,0.1641,0.1687,0.1714,0.1694,0.1793,0.1802,0.181,0.1842,0.1854,0.1715,0.1715,0.1716,0.1716,0,0.0615,0.0705,0.0761,0.0884,0.0951,0.1039,0.1118,0.1179,0.1215,0.1274,0.1392,0.1484,0.1596,0.1632,0.1669,0.1773,0.1768,0.1777,0.1769,0.1817,0.1849,0.1862,0.1714,0.1715,0.1715,0.1715,0,0,0.066,0.0816,0.0835,0.0892,0.1012,0.1084,0.1174,0.1282,0.1333,0.1422,0.1501,0.1636,0.1645,0.1711,0.1757,0.1814,0.188,0.1816,0.182,0.1826,0.2001,0.1994,0.2008,0.1899,0.1901,0.1903,0.1993,0,0.0738,0.0899,0.0958,0.1091,0.1176,0.1223,0.1302,0.1385,0.1443,0.1525,0.159,0.1685,0.1688,0.1729,0.1787,0.1859,0.1916,0.1853,0.1975,0.1979,0.1948,0.2024,0.2018,0.2098,0.2005,0.2008,0.2009,0,0.0852,0.0939,0.1079,0.1188,0.1226,0.1295,0.1399,0.1476,0.1572,0.161,0.1683,0.1726,0.1824,0.1808,0.1946,0.1902,0.1955,0.1998,0.2003,0.2018,0.1998,0.2043,0.2125,0.2137,0.2029,0.2028,0.2026,0,0.0871,0.1024,0.1128,0.1174,0.1304,0.1352,0.1409,0.1502,0.1563,0.1654,0.1695,0.1797,0.1854,0.1933,0.2002,0.1984,0.2134,0.2124,0.2171,0.2169,0.2202,0.2199,0.2295,0.2234,0.2234,0.2233,0.2233,0,0.0953,0.1037,0.1138,0.1202,0.1297,0.1366,0.146,0.152,0.1603,0.1681,0.1729,0.1802,0.1888,0.1973,0.2028,0.2134,0.2159,0.2195,0.2209,0.2191,0.2187,0.2228,0.2225,0.2237,0.2236,0.2235,0.2235,0,0.0992,0.1062,0.1178,0.129,0.132,0.1386,0.1484,0.1549,0.1607,0.1706,0.1733,0.1827,0.1929,0.2005,0.2138,0.2175,0.2289,0.2303,0.2255,0.2263,0.2306,0.2301,0.2433,0.2454,0.2377,0.2378,0.2378,0,0.104,0.1105,0.1223,0.1277,0.1333,0.142,0.1481,0.1552,0.1614,0.1728,0.178,0.1884,0.1971,0.2132,0.2214,0.2316,0.2334,0.2373,0.235,0.233,0.2336,0.2332,0.2339,0.2377,0.2377,0.2378,0.2378,0,0.1119,0.115,0.1235,0.1332,0.1403,0.1484,0.1566,0.1609,0.1694,0.1762,0.1865,0.1933,0.2067,0.2171,0.2281,0.2342,0.2376,0.2384,0.2401,0.2384,0.2354,0.2372,0.2265,0.2381,0.2381,0.2381,0.238,0.238,0.1165,0.1225,0.1317,0.141,0.1479,0.1554,0.162,0.1686,0.1772,0.1885,0.1922,0.2029,0.2124,0.2275,0.2337,0.2423,0.2423,0.2447,0.2454,0.2459,0.2458,0.2339,0.2443,0.2443,0.2444,0.2444,0.2444,0,0.1247,0.1308,0.1393,0.1504,0.1578,0.1599,0.169,0.1752,0.1844,0.1928,0.2013,0.2132,0.2232,0.2321,0.2426,0.2478,0.2496,0.2504,0.2502,0.2516,0.2451,0.2426,0.2488,0.2488,0.2488,0.2488,0.2488,0.2488,0.1298,0.1401,0.1443,0.1581,0.1642,0.1744,0.1795,0.1865,0.1933,0.2062,0.2145,0.2201,0.2288,0.24,0.2494,0.2518,0.2555,0.2559,0.2587,0.2525,0.252,0.2515,0.2492,0.2567,0.2567,0.2645,0.2646,0.2646]}]]